GW5725 Weather Reports


time (UTC)temp
C
wind
direction
speed
KPH
gust
KPH
rain 1hr
cm
rain 24hr
cm
rain mn
cm
humidity
%
barometer
mb
20260504024518 13 167 0.0 4.8 0.00 0.00 0.00 64 1017.1
20260504024008 13 167 0.0 4.8 0.00 0.00 0.00 63 1017.0
20260504023508 13 167 0.0 4.8 0.00 0.00 0.00 62 1017.1
20260504023004 13 167 0.0 4.8 0.00 0.00 0.00 62 1017.0
20260504022508 13 167 0.0 4.8 0.00 0.00 0.00 61 1016.9
20260504022003 13 167 0.0 4.8 0.00 0.00 0.00 60 1016.9
20260504021508 13 167 0.0 4.8 0.00 0.00 0.00 60 1017.0
20260504021006 14 163 1.6 3.2 0.00 0.00 0.00 59 1016.8
20260504020507 14 154 0.0 3.2 0.00 0.00 0.00 59 1016.7
20260504020019 14 146 0.0 3.2 0.00 0.00 0.00 58 1016.7
20260504015508 14 147 0.0 3.2 0.00 0.00 0.00 58 1016.6
20260504015016 14 147 1.6 3.2 0.00 0.00 0.00 57 1016.6
20260504014538 14 155 0.0 3.2 0.00 0.00 0.00 57 1016.5
20260504014007 14 155 0.0 3.2 0.00 0.00 0.00 56 1016.4
20260504013510 14 147 0.0 3.2 0.00 0.00 0.00 56 1016.4
20260504013023 14 147 0.0 3.2 0.00 0.00 0.00 55 1016.4
20260504012515 14 147 0.0 3.2 0.00 0.00 0.00 55 1016.4
20260504012005 15 138 0.0 1.6 0.00 0.00 0.00 54 1016.4
20260504011507 15 138 0.0 3.2 0.00 0.00 0.00 53 1016.4
20260504011004 15 138 0.0 3.2 0.00 0.00 0.00 52 1016.4
20260504010513 15 138 0.0 1.6 0.00 0.00 0.00 51 1016.4
20260504010013 15 138 0.0 1.6 0.00 0.00 0.00 50 1016.4
20260504005508 15 138 0.0 0.0 0.00 0.00 0.00 49 1016.4
20260504005006 15 138 0.0 0.0 0.00 0.00 0.00 48 1016.4
20260504004517 16 138 0.0 0.0 0.00 0.00 0.00 47 1016.3
20260504004008 16 138 0.0 0.0 0.00 0.00 0.00 46 1016.1
20260504003511 16 138 0.0 0.0 0.00 0.00 0.00 46 1016.1
20260504003022 16 138 0.0 0.0 0.00 0.00 0.00 45 1016.1
20260504002508 17 138 0.0 3.2 0.00 0.00 0.00 44 1016.0
20260504002010 17 138 0.0 3.2 0.00 0.00 0.00 44 1016.0
20260504001525 17 138 0.0 0.0 0.00 0.00 0.00 43 1015.9
20260504001007 17 136 0.0 3.2 0.00 0.00 0.00 42 1015.9
20260504000504 17 136 0.0 3.2 0.00 0.00 0.00 41 1015.9
20260504000018 17 136 0.0 3.2 0.00 0.00 0.00 42 1015.8
20260503235509 17 136 0.0 3.2 0.00 0.00 0.00 41 1015.8
20260503235007 18 136 0.0 3.2 0.00 0.00 0.00 42 1015.8
20260503234516 18 262 0.0 3.2 0.00 0.00 0.00 40 1015.9
20260503234008 18 271 0.0 3.2 0.00 0.00 0.00 40 1015.8
20260503233507 18 271 0.0 3.2 0.00 0.00 0.00 40 1015.8
20260503233024 18 98 0.0 3.2 0.00 0.00 0.00 40 1015.8
20260503232510 18 340 1.6 4.8 0.00 0.00 0.00 40 1015.9
20260503232009 18 329 0.0 4.8 0.00 0.00 0.00 39 1015.9
20260503231524 18 287 0.0 3.2 0.00 0.00 0.00 38 1015.9
20260503231009 18 346 0.0 3.2 0.00 0.00 0.00 39 1016.0
20260503230509 18 221 0.0 3.2 0.00 0.00 0.00 39 1016.0
20260503230026 18 207 0.0 4.8 0.00 0.00 0.00 40 1016.0
20260503225508 18 209 1.6 8.0 0.00 0.00 0.00 38 1016.0
20260503225007 18 165 1.6 8.0 0.00 0.00 0.00 41 1016.0
20260503224512 19 292 1.6 11.3 0.00 0.00 0.00 38 1015.9
20260503224009 19 259 3.2 11.3 0.00 0.00 0.00 38 1016.0
20260503223507 20 346 3.2 8.0 0.00 0.00 0.00 36 1016.1
20260503223020 20 22 1.6 8.0 0.00 0.00 0.00 38 1016.1
20260503222509 20 99 0.0 8.0 0.00 0.00 0.00 37 1016.1
20260503222009 20 226 1.6 8.0 0.00 0.00 0.00 37 1016.1
20260503221524 20 352 0.0 6.4 0.00 0.00 0.00 39 1016.1
20260503221011 20 348 3.2 6.4 0.00 0.00 0.00 38 1016.2
20260503220511 20 266 1.6 4.8 0.00 0.00 0.00 37 1016.2
20260503220027 20 296 1.6 9.7 0.00 0.00 0.00 35 1016.2
20260503215510 20 117 1.6 9.7 0.00 0.00 0.00 37 1016.2
20260503215012 20 63 1.6 9.7 0.00 0.00 0.00 38 1016.3
20260503214522 20 360 1.6 9.7 0.00 0.00 0.00 37 1016.3
20260503214007 20 333 1.6 8.0 0.00 0.00 0.00 36 1016.3
20260503213512 20 346 1.6 6.4 0.00 0.00 0.00 37 1016.3
20260503213017 20 167 1.6 6.4 0.00 0.00 0.00 35 1016.3
20260503212508 20 198 1.6 6.4 0.00 0.00 0.00 36 1016.3
20260503212011 20 227 4.8 6.4 0.00 0.00 0.00 37 1016.3
20260503211524 20 127 1.6 9.7 0.00 0.00 0.00 35 1016.4
20260503211010 20 32 1.6 9.7 0.00 0.00 0.00 35 1016.4
20260503210510 20 86 3.2 8.0 0.00 0.00 0.00 35 1016.5
20260503210042 20 275 0.0 8.0 0.00 0.00 0.00 36 1016.6
20260503205516 20 214 3.2 8.0 0.00 0.00 0.00 36 1016.6
20260503205015 20 225 0.0 6.4 0.00 0.00 0.00 36 1016.7
20260503204525 20 225 1.6 8.0 0.00 0.00 0.00 36 1016.9
20260503204015 20 346 4.8 17.7 0.00 0.00 0.00 35 1016.9
20260503203506 20 206 3.2 17.7 0.00 0.00 0.00 36 1016.9
20260503203015 20 149 3.2 9.7 0.00 0.00 0.00 35 1017.0
20260503202508 20 256 3.2 9.7 0.00 0.00 0.00 36 1017.1
20260503202012 20 236 1.6 9.7 0.00 0.00 0.00 37 1017.2
20260503201524 20 187 1.6 11.3 0.00 0.00 0.00 35 1017.2
20260503201010 20 174 3.2 11.3 0.00 0.00 0.00 35 1017.3
20260503200513 20 233 1.6 14.5 0.00 0.00 0.00 40 1017.5
20260503200026 20 222 3.2 14.5 0.00 0.00 0.00 37 1017.5
20260503195509 20 162 3.2 14.5 0.00 0.00 0.00 40 1017.6
20260503195013 20 303 6.4 19.3 0.00 0.00 0.00 37 1017.6
20260503194528 20 302 4.8 19.3 0.00 0.00 0.00 39 1017.7
20260503194012 20 167 4.8 17.7 0.00 0.00 0.00 37 1017.7
20260503193508 20 128 4.8 12.9 0.00 0.00 0.00 39 1017.9
20260503193032 19 61 1.6 14.5 0.00 0.00 0.00 38 1017.9
20260503192508 20 320 4.8 14.5 0.00 0.00 0.00 40 1018.0
20260503192008 20 171 1.6 6.4 0.00 0.00 0.00 38 1018.1
20260503191519 20 9 1.6 9.7 0.00 0.00 0.00 37 1018.2
20260503191009 19 321 3.2 9.7 0.00 0.00 0.00 38 1018.2
20260503190512 19 282 4.8 9.7 0.00 0.00 0.00 39 1018.3
20260503190023 20 350 3.2 9.7 0.00 0.00 0.00 39 1018.4
20260503185508 19 211 1.6 16.1 0.00 0.00 0.00 42 1018.5
20260503185016 19 111 3.2 16.1 0.00 0.00 0.00 42 1018.5
20260503184529 19 120 3.2 12.9 0.00 0.00 0.00 36 1018.6
20260503184013 19 232 1.6 6.4 0.00 0.00 0.00 43 1018.6
20260503183515 19 352 1.6 6.4 0.00 0.00 0.00 38 1018.6
20260503183027 18 145 3.2 8.0 0.00 0.00 0.00 39 1018.7
20260503182507 18 171 1.6 14.5 0.00 0.00 0.00 41 1018.8
20260503182010 18 150 3.2 14.5 0.00 0.00 0.00 40 1018.8
20260503181518 18 164 3.2 9.7 0.00 0.00 0.00 39 1018.8
20260503181007 18 154 3.2 14.5 0.00 0.00 0.00 38 1018.8
20260503180508 18 234 6.4 14.5 0.00 0.00 0.00 42 1018.7
20260503180020 18 159 3.2 12.9 0.00 0.00 0.00 39 1018.8
20260503175507 18 10 1.6 12.9 0.00 0.00 0.00 40 1018.8
20260503175013 17 333 6.4 12.9 0.00 0.00 0.00 38 1018.8
20260503174525 17 46 3.2 9.7 0.00 0.00 0.00 39 1018.8
20260503174015 17 167 1.6 14.5 0.00 0.00 0.00 39 1018.9
20260503173509 17 346 8.0 14.5 0.00 0.00 0.00 38 1019.1
20260503173036 17 92 4.8 11.3 0.00 0.00 0.00 41 1019.1
20260503172509 17 337 3.2 9.7 0.00 0.00 0.00 40 1019.3
20260503172014 18 214 4.8 9.7 0.00 0.00 0.00 40 1019.4
20260503171528 17 251 3.2 8.0 0.00 0.00 0.00 45 1019.5
20260503171008 17 205 3.2 8.0 0.00 0.00 0.00 41 1019.5
20260503170516 17 155 3.2 11.3 0.00 0.00 0.00 38 1019.7
20260503151010 15 89 4.8 9.7 0.00 0.00 0.00 46 1020.5
20260503150511 15 92 3.2 6.4 0.00 0.00 0.00 47 1020.5
20260503131004 12 88 1.6 11.3 0.00 0.00 0.00 56 1020.2
20260503130506 12 105 3.2 8.0 0.00 0.00 0.00 55 1020.2
20260503110510 5 305 0.0 1.6 0.00 0.00 0.00 86 1019.3
20260503090508 6 313 0.0 0.0 0.00 0.00 0.00 81 1018.0
20260503081535 6 313 0.0 0.0 0.00 0.03 0.00 80 1017.5
20260503081007 6 313 0.0 0.0 0.00 0.03 0.00 79 1017.5
20260503080510 6 313 0.0 0.0 0.00 0.03 0.00 79 1017.5
20260503072504 6 313 0.0 0.0 0.00 0.03 0.00 77 1017.1
20260503072006 7 313 0.0 0.0 0.00 0.03 0.00 77 1017.1
20260503071533 7 313 0.0 1.6 0.00 0.03 0.00 77 1017.0
20260503071013 7 313 0.0 1.6 0.00 0.03 0.00 76 1017.0
20260503070511 7 313 0.0 0.0 0.00 0.03 0.00 76 1016.9
20260503055011 8 313 0.0 0.0 0.00 0.03 0.00 70 1016.8
20260503054534 8 312 0.0 0.0 0.00 0.03 0.00 72 1016.8
20260503054011 8 314 0.0 0.0 0.00 0.03 0.00 69 1016.8
20260503053508 8 314 0.0 3.2 0.00 0.03 0.00 69 1016.8
20260503053026 8 313 0.0 3.2 0.00 0.03 0.00 69 1016.8
20260503052514 8 313 0.0 3.2 0.00 0.03 0.00 67 1016.8
20260503052013 8 317 0.0 3.2 0.00 0.03 0.00 66 1016.7
20260503051531 8 316 0.0 3.2 0.00 0.03 0.00 66 1016.7
20260503051006 8 317 0.0 3.2 0.00 0.03 0.00 65 1016.7
20260503050507 8 317 0.0 3.2 0.00 0.03 0.00 65 1016.6
20260503050016 8 317 0.0 3.2 0.00 0.03 0.00 65 1016.6
20260503045506 8 316 0.0 3.2 0.00 0.03 0.00 65 1016.6
20260503045015 8 313 0.0 3.2 0.00 0.03 0.00 64 1016.6
20260503044536 8 312 0.0 3.2 0.00 0.03 0.00 63 1016.6
20260503044012 9 312 0.0 3.2 0.00 0.03 0.00 63 1016.7
20260503043511 9 312 0.0 3.2 0.00 0.03 0.00 63 1016.6
20260503043026 9 312 0.0 3.2 0.00 0.03 0.00 61 1016.7
20260503042509 9 312 0.0 1.6 0.00 0.03 0.00 62 1016.6
20260503042014 9 312 0.0 1.6 0.00 0.03 0.00 61 1016.6
20260503041528 9 312 0.0 0.0 0.00 0.03 0.00 61 1016.6
20260503041009 9 312 0.0 0.0 0.00 0.03 0.00 60 1016.4
20260503040511 10 312 0.0 0.0 0.00 0.03 0.00 59 1016.3
20260503040014 10 312 0.0 3.2 0.00 0.03 0.00 60 1016.3
20260503035506 10 312 0.0 3.2 0.00 0.03 0.03 59 1016.2
20260503035009 10 312 0.0 3.2 0.00 0.03 0.03 59 1016.2
20260503034523 10 51 0.0 3.2 0.00 0.03 0.03 60 1016.1
20260503034007 10 51 0.0 3.2 0.00 0.03 0.03 61 1016.1
20260503033512 10 51 0.0 3.2 0.00 0.03 0.03 60 1016.1
20260503033026 10 51 0.0 3.2 0.00 0.03 0.03 59 1016.0
20260503032510 10 51 0.0 3.2 0.00 0.03 0.03 58 1016.0
20260503032013 10 51 0.0 3.2 0.00 0.03 0.03 57 1015.9
20260503031526 10 51 0.0 0.0 0.00 0.03 0.03 57 1015.9
20260503031009 10 51 0.0 0.0 0.00 0.03 0.03 57 1015.9
20260503030515 11 51 0.0 0.0 0.00 0.03 0.03 55 1015.8
20260503030030 11 51 0.0 0.0 0.00 0.03 0.03 54 1015.8
20260503025507 11 51 0.0 0.0 0.00 0.03 0.03 53 1015.8
20260503025006 11 51 0.0 0.0 0.00 0.03 0.03 54 1015.6